When you browse on this site, cookies collect data to enhance your experience and personalize the content and advertising you see.
Visit our Privacy Policy to learn more. By continuing to use the site, you agree to this use of cookies and data.
  • En España
  • Lista de países
  • Para 7 días
  • Temperatura del agua
  • El tiempo en el mapa
  • Informadores
  • user-avatar
    Iniciar sesión

    Tiempo cada hora El Quseir

    Hoy, 29 Febrero, Sábado

    Tiempo Temperatura Precipitaciones Viento Presión Humedad
    00:00 +17°C° 0 mm 5 mps 759 mmHg 41%
    01:00 +17°C° 0 mm 5 mps 759 mmHg 40%
    02:00 +17°C° 0 mm 6 mps 758 mmHg 45%
    03:00 +16°C° 0 mm 6 mps 758 mmHg 42%
    04:00 +16°C° 0 mm 6 mps 759 mmHg 40%
    05:00 +15°C° 0 mm 6 mps 759 mmHg 37%
    06:00 +18°C° 0 mm 7 mps 759 mmHg 32%
    07:00 +21°C° 0 mm 8 mps 759 mmHg 27%
    08:00 +23°C° 0 mm 9 mps 759 mmHg 22%
    09:00 +26°C° 0 mm 9 mps 759 mmHg 22%
    10:00 +27°C° 0 mm 9 mps 760 mmHg 21%
    11:00 +28°C° 0 mm 9 mps 760 mmHg 21%
    12:00 +28°C° 0 mm 9 mps 759 mmHg 23%
    13:00 +28°C° 0 mm 9 mps 758 mmHg 25%
    14:00 +28°C° 0 mm 9 mps 758 mmHg 27%
    15:00 +27°C° 0 mm 9 mps 758 mmHg 29%
    16:00 +26°C° 0 mm 9 mps 758 mmHg 31%
    17:00 +24°C° 0 mm 10 mps 759 mmHg 33%
    18:00 +22°C° 0 mm 10 mps 759 mmHg 37%
    19:00 +18°C° 0 mm 11 mps 759 mmHg 42%
    20:00 +16°C° 0 mm 11 mps 760 mmHg 47%
    21:00 +14°C° 0 mm 11 mps 760 mmHg 45%
    22:00 +14°C° 0 mm 10 mps 760 mmHg 44%
    23:00 +13°C° 0 mm 10 mps 761 mmHg 42%

    Mañana, 1 Marzo, Domingo

    Tiempo Temperatura Precipitaciones Viento Presión Humedad
    00:00 +13°C° 0 mm 10 mps 760 mmHg 44%
    01:00 +12°C° 0 mm 9 mps 760 mmHg 46%
    02:00 +12°C° 0 mm 9 mps 760 mmHg 47%
    03:00 +12°C° 0 mm 9 mps 760 mmHg 51%
    04:00 +11°C° 0 mm 10 mps 760 mmHg 55%
    05:00 +11°C° 0 mm 10 mps 761 mmHg 60%
    06:00 +12°C° 0 mm 10 mps 761 mmHg 56%
    07:00 +14°C° 0 mm 11 mps 761 mmHg 53%
    08:00 +16°C° 0 mm 11 mps 762 mmHg 49%
    09:00 +18°C° 0 mm 11 mps 762 mmHg 43%
    10:00 +21°C° 0 mm 10 mps 762 mmHg 36%
    11:00 +23°C° 0 mm 10 mps 762 mmHg 30%
    12:00 +24°C° 0 mm 10 mps 762 mmHg 27%
    13:00 +24°C° 0 mm 11 mps 761 mmHg 25%
    14:00 +26°C° 0 mm 11 mps 760 mmHg 22%
    15:00 +24°C° 0 mm 11 mps 760 mmHg 26%
    16:00 +23°C° 0 mm 10 mps 760 mmHg 29%
    17:00 +22°C° 0 mm 10 mps 761 mmHg 33%
    18:00 +21°C° 0 mm 10 mps 761 mmHg 33%
    19:00 +18°C° 0 mm 10 mps 761 mmHg 34%
    20:00 +17°C° 0 mm 9 mps 762 mmHg 34%
    21:00 +16°C° 0 mm 9 mps 762 mmHg 34%
    22:00 +15°C° 0 mm 9 mps 762 mmHg 35%
    23:00 +12°C° 0 mm 9 mps 762 mmHg 36%

    Pasado mañana, 2 Marzo, Lunes

    Tiempo Temperatura Precipitaciones Viento Presión Humedad
    00:00 +12°C° 0 mm 9 mps 762 mmHg 37%
    01:00 +12°C° 0 mm 9 mps 762 mmHg 39%
    02:00 +11°C° 0 mm 9 mps 761 mmHg 40%
    03:00 +11°C° 0 mm 9 mps 761 mmHg 46%
    04:00 +11°C° 0 mm 9 mps 761 mmHg 52%
    05:00 +10°C° 0 mm 9 mps 761 mmHg 58%
    06:00 +12°C° 0 mm 9 mps 762 mmHg 50%
    07:00 +16°C° 0 mm 9 mps 762 mmHg 42%
    08:00 +18°C° 0 mm 9 mps 762 mmHg 35%
    09:00 +21°C° 0 mm 9 mps 762 mmHg 32%
    10:00 +22°C° 0 mm 9 mps 762 mmHg 30%
    11:00 +24°C° 0 mm 9 mps 762 mmHg 28%
    12:00 +26°C° 0 mm 8 mps 761 mmHg 29%
    13:00 +26°C° 0 mm 8 mps 761 mmHg 31%
    14:00 +27°C° 0 mm 8 mps 760 mmHg 33%
    15:00 +26°C° 0 mm 7 mps 760 mmHg 37%
    16:00 +24°C° 0 mm 7 mps 760 mmHg 41%
    17:00 +23°C° 0 mm 6 mps 760 mmHg 45%
    18:00 +21°C° 0 mm 6 mps 761 mmHg 49%
    19:00 +19°C° 0 mm 6 mps 761 mmHg 53%
    20:00 +16°C° 0 mm 6 mps 761 mmHg 57%
    21:00 +15°C° 0 mm 7 mps 762 mmHg 55%
    22:00 +15°C° 0 mm 7 mps 762 mmHg 53%
    23:00 +14°C° 0 mm 7 mps 762 mmHg 51%

    3 Marzo, Martes

    Tiempo Temperatura Precipitaciones Viento Presión Humedad
    00:00 +13°C° 0 mm 8 mps 761 mmHg 50%
    01:00 +13°C° 0 mm 8 mps 761 mmHg 48%
    02:00 +12°C° 0 mm 8 mps 761 mmHg 47%
    03:00 +12°C° 0 mm 8 mps 761 mmHg 48%
    04:00 +12°C° 0 mm 8 mps 761 mmHg 49%
    05:00 +11°C° 0 mm 8 mps 761 mmHg 50%
    06:00 +15°C° 0 mm 8 mps 761 mmHg 42%
    07:00 +18°C° 0 mm 8 mps 761 mmHg 35%
    08:00 +21°C° 0 mm 8 mps 762 mmHg 27%
    09:00 +23°C° 0 mm 8 mps 761 mmHg 25%
    10:00 +26°C° 0 mm 7 mps 761 mmHg 23%
    11:00 +28°C° 0 mm 7 mps 761 mmHg 20%
    12:00 +28°C° 0 mm 6 mps 761 mmHg 21%
    13:00 +28°C° 0 mm 6 mps 760 mmHg 23%
    14:00 +28°C° 0 mm 5 mps 759 mmHg 24%
    15:00 +28°C° 0 mm 4 mps 759 mmHg 26%
    16:00 +27°C° 0 mm 4 mps 759 mmHg 28%
    17:00 +26°C° 0 mm 3 mps 759 mmHg 31%
    18:00 +22°C° 0 mm 3 mps 759 mmHg 38%
    19:00 +20°C° 0 mm 3 mps 760 mmHg 45%
    20:00 +17°C° 0 mm 4 mps 760 mmHg 52%
    21:00 +17°C° 0 mm 4 mps 760 mmHg 52%
    22:00 +15°C° 0 mm 4 mps 760 mmHg 52%
    23:00 +15°C° 0 mm 4 mps 760 mmHg 51%

    4 Marzo, Miércoles

    Tiempo Temperatura Precipitaciones Viento Presión Humedad
    00:00 +15°C° 0 mm 5 mps 759 mmHg 54%
    01:00 +15°C° 0 mm 5 mps 759 mmHg 57%
    02:00 +14°C° 0 mm 5 mps 758 mmHg 60%
    03:00 +14°C° 0 mm 5 mps 758 mmHg 59%
    04:00 +14°C° 0 mm 5 mps 758 mmHg 58%
    05:00 +13°C° 0 mm 5 mps 758 mmHg 57%
    06:00 +17°C° 0 mm 5 mps 759 mmHg 43%
    07:00 +21°C° 0 mm 5 mps 759 mmHg 29%
    08:00 +26°C° 0 mm 4 mps 759 mmHg 15%
    09:00 +28°C° 0 mm 4 mps 759 mmHg 13%
    10:00 +29°C° 0 mm 4 mps 759 mmHg 11%
    11:00 +32°C° 0 mm 4 mps 759 mmHg 10%
    12:00 +32°C° 0 mm 4 mps 758 mmHg 12%
    13:00 +32°C° 0 mm 4 mps 757 mmHg 14%
    14:00 +31°C° 0 mm 3 mps 757 mmHg 16%
    15:00 +30°C° 0 mm 2 mps 757 mmHg 17%
    16:00 +29°C° 0 mm 1 mps 757 mmHg 19%
    17:00 +26°C° 0 mm 0 mps 757 mmHg 20%
    18:00 +26°C° 0 mm 1 mps 757 mmHg 22%
    19:00 +23°C° 0 mm 1 mps 757 mmHg 25%
    20:00 +19°C° 0 mm 2 mps 758 mmHg 28%
    21:00 +19°C° 0 mm 2 mps 758 mmHg 26%
    22:00 +19°C° 0 mm 2 mps 758 mmHg 25%
    23:00 +19°C° 0 mm 2 mps 758 mmHg 23%

    5 Marzo, Jueves

    Tiempo Temperatura Precipitaciones Viento Presión Humedad
    00:00 +18°C° 0 mm 2 mps 757 mmHg 24%
    01:00 +17°C° 0 mm 2 mps 757 mmHg 25%
    02:00 +17°C° 0 mm 2 mps 757 mmHg 26%
    03:00 +16°C° 0 mm 2 mps 757 mmHg 33%
    04:00 +16°C° 0 mm 2 mps 757 mmHg 40%
    05:00 +16°C° 0 mm 2 mps 757 mmHg 47%
    06:00 +20°C° 0 mm 1 mps 757 mmHg 35%
    07:00 +24°C° 0 mm 1 mps 757 mmHg 23%
    08:00 +27°C° 0 mm 1 mps 758 mmHg 11%
    09:00 +29°C° 0 mm 1 mps 758 mmHg 10%
    10:00 +31°C° 0 mm 2 mps 758 mmHg 9%
    11:00 +34°C° 0 mm 2 mps 758 mmHg 8%
    12:00 +34°C° 0 mm 3 mps 757 mmHg 9%
    13:00 +34°C° 0 mm 3 mps 756 mmHg 10%
    14:00 +34°C° 0 mm 4 mps 756 mmHg 11%
    15:00 +34°C° 0 mm 4 mps 756 mmHg 11%
    16:00 +33°C° 0 mm 4 mps 756 mmHg 12%
    17:00 +32°C° 0 mm 4 mps 756 mmHg 13%
    18:00 +29°C° 0 mm 4 mps 756 mmHg 15%
    19:00 +27°C° 0 mm 3 mps 757 mmHg 17%
    20:00 +24°C° 0 mm 3 mps 758 mmHg 19%
    21:00 +22°C° 0 mm 4 mps 758 mmHg 23%
    22:00 +22°C° 0 mm 5 mps 758 mmHg 27%
    23:00 +21°C° 0 mm 6 mps 758 mmHg 31%
    Mostrar más